Regional Weather Roundup
Issued by NWS

Home | Current Version | Previous Version | Text Only | Print | Product List | Glossary Off
Versions: 1 2 3 4 5 6 7 8 9 10 11 12 13 14 15 16 17 18 19 20 21 22 23 24 25 26 27 28 29 30 31 32 33 34 35 36 37 38 39 40 41 42 43 44 45 46 47 48 49 50

000
ASUS43 KLSX 221207
RWRMO

WEATHER SUMMARY FOR MISSOURI
NATIONAL WEATHER SERVICE SPRINGFIELD MO
700 AM CDT FRI MAY 22 2015

NOTE: "FAIR" INDICATES FEW OR NO CLOUDS BELOW 12,000 FEET WITH NO
       SIGNIFICANT WEATHER AND/OR OBSTRUCTIONS TO VISIBILITY.
       CURRENT SKY AND/OR WEATHER CONDITIONS ARE NOT AVAILABLE FOR
       CHILLICOTHE AND FARMINGTON.

MOZ001>031-035>038-043-044-053-054-221300-
...NORTHERN AND WESTERN MISSOURI...

CITY           SKY/WX    TMP DP  RH WIND       PRES   REMARKS
KANSAS CTY INT PTCLDY    53  48  83 NE3       30.23R
6HR MIN TEMP:  46; 6HR MAX TEMP:  53;

KANSAS C DTWN  PTCLDY    53  50  89 CALM      30.23R
6HR MIN TEMP:  50; 6HR MAX TEMP:  55;

LEE`S SUMMIT   MOSUNNY   49  46  90 S3        30.24R
6HR MIN TEMP:  46; 6HR MAX TEMP:  52;

ST JOSEPH      PTCLDY    49  47  93 CALM      30.23S
6HR MIN TEMP:  46; 6HR MAX TEMP:  54;

CHILLICOTHE      N/A     51  47  86 CALM      30.24R
6HR MIN TEMP:  46; 6HR MAX TEMP:  57;

KIRKSVILLE     SUNNY     53  45  74 W6        30.22R
6HR MIN TEMP:  50; 6HR MAX TEMP:  56;


$$
MOZ066>068-077>081-088>096-101>105-221300-
...SOUTHWEST MISSOURI...

CITY           SKY/WX    TMP DP  RH WIND       PRES   REMARKS
SPRINGFIELD    SUNNY     48  43  82 SE7       30.25R
6HR MIN TEMP:  42; 6HR MAX TEMP:  48;

JOPLIN         CLOUDY    49  45  86 SE6       30.25R
6HR MIN TEMP:  44; 6HR MAX TEMP:  49;


$$
MOZ032>034-039>042-045>050-055>058-069>072-221300-
...CENTRAL MISSOURI...

CITY           SKY/WX    TMP DP  RH WIND       PRES   REMARKS
COLUMBIA       SUNNY     52  45  77 W6        30.25R
6HR MIN TEMP:  47; 6HR MAX TEMP:  53;

JEFFERSON CITY SUNNY     49  46  90 CALM      30.26R
6HR MIN TEMP:  45; 6HR MAX TEMP:  53;

ROLLA          SUNNY     46  43  89 SW8       30.25R
6HR MIN TEMP:  42; 6HR MAX TEMP:  47;

SEDALIA        SUNNY     51  45  79 SW6       30.25S
6HR MIN TEMP:  49; 6HR MAX TEMP:  55;

WHITEMAN AFB   SUNNY     49  47  93 SW1       30.23S
WARRENSBURG    MOSUNNY   46  45  93 S5        30.24S
OSAGE BEACH    SUNNY     43  39  87 CALM      30.27R

$$
MOZ051-052-059>065-221300-
...EAST CENTRAL MISSOURI...

CITY           SKY/WX    TMP DP  RH WIND       PRES   REMARKS
ST LOUIS INTL  MOSUNNY   55  44  66 W7        30.23R
6HR MIN TEMP:  53; 6HR MAX TEMP:  55;

SPIRIT OF STL  SUNNY     51  47  86 W5        30.23R
6HR MIN TEMP:  45; 6HR MAX TEMP:  51;

ST CHARLES     SUNNY     51  47  86 S6        30.22R
6HR MIN TEMP:  47; 6HR MAX TEMP:  52;


$$
MOZ072>076-082>087-097>100-106>115-221300-
...SOUTH CENTRAL AND SOUTHEAST MISSOURI...

CITY           SKY/WX    TMP DP  RH WIND       PRES   REMARKS
CAPE GIRARDEAU SUNNY     47  47 100 CALM      30.29R
6HR MIN TEMP:  42; 6HR MAX TEMP:  47;

FARMINGTON     SUNNY     45  43  93 S3        30.30R
6HR MIN TEMP:  39; 6HR MAX TEMP:  45;

POPLAR BLUFF   SUNNY     47  44  90 N3        30.28R
6HR MIN TEMP:  44; 6HR MAX TEMP:  49;

WEST PLAINS    SUNNY     47  43  86 CALM      30.29R
6HR MIN TEMP:  39; 6HR MAX TEMP:  47;


$$



USA.gov is the U.S. government's official web portal to all federal, state and local government web resources and services.